| time (UTC) | temp C | wind direction | speed KPH | gust KPH | rain 1hr cm | rain 24hr cm | rain mn cm | humidity % | barometer mb |
| 20260906103305 | 24 | 179 | 4.8 | 9.7 | 0.00 | 0.00 | 0.00 | 66 | 1023.0 |
| 20260906102306 | 24 | 161 | 4.8 | 12.9 | 0.00 | 0.00 | 0.00 | 70 | 1023.0 |
| 20260906101806 | 23 | 114 | 6.4 | 12.9 | 0.00 | 0.00 | 0.00 | 71 | 1023.0 |
| 20260906100805 | 23 | 84 | 6.4 | 11.3 | 0.00 | 0.00 | 0.00 | 72 | 1023.0 |
| 20260906100306 | 23 | 21 | 4.8 | 8.0 | 0.00 | 0.00 | 0.00 | 73 | 1023.0 |
| 20260906095805 | 23 | 186 | 4.8 | 9.7 | 0.00 | 0.00 | 0.00 | 72 | 1023.0 |
| 20260906095306 | 23 | 150 | 8.0 | 11.3 | 0.00 | 0.00 | 0.00 | 73 | 1023.0 |
| 20260906094805 | 23 | 167 | 3.2 | 11.3 | 0.00 | 0.00 | 0.00 | 70 | 1023.0 |
| 20260906094305 | 24 | 102 | 4.8 | 11.3 | 0.00 | 0.00 | 0.00 | 67 | 1023.0 |
| 20260906093805 | 25 | 34 | 8.0 | 32.2 | 0.00 | 0.00 | 0.00 | 56 | 1023.0 |
| 20260906093305 | 24 | 28 | 9.7 | 22.5 | 0.00 | 0.00 | 0.00 | 56 | 1023.0 |
| 20260906092805 | 24 | 53 | 12.9 | 25.7 | 0.00 | 0.00 | 0.00 | 57 | 1023.0 |
| 20260906092306 | 24 | 64 | 11.3 | 22.5 | 0.00 | 0.00 | 0.00 | 56 | 1023.0 |
| 20260906091805 | 24 | 66 | 8.0 | 19.3 | 0.00 | 0.00 | 0.00 | 57 | 1023.0 |
| 20260906090305 | 23 | 38 | 9.7 | 27.4 | 0.00 | 0.00 | 0.00 | 60 | 1023.0 |
| 20260906085805 | 23 | 46 | 9.7 | 20.9 | 0.00 | 0.00 | 0.00 | 60 | 1023.0 |
| 20260906083805 | 23 | 38 | 9.7 | 19.3 | 0.00 | 0.00 | 0.00 | 60 | 1022.0 |
| 20260906083305 | 23 | 45 | 8.0 | 20.9 | 0.00 | 0.00 | 0.00 | 61 | 1022.0 |
| 20260906081805 | 22 | 74 | 6.4 | 32.2 | 0.00 | 0.00 | 0.00 | 63 | 1022.0 |
| 20260906081306 | 22 | 40 | 9.7 | 25.7 | 0.00 | 0.00 | 0.00 | 64 | 1022.0 |
| 20260906075805 | 21 | 59 | 6.4 | 20.9 | 0.00 | 0.00 | 0.00 | 65 | 1022.0 |
| 20260906075306 | 21 | 27 | 8.0 | 19.3 | 0.00 | 0.00 | 0.00 | 65 | 1022.0 |
| 20260906074806 | 21 | 56 | 6.4 | 14.5 | 0.00 | 0.00 | 0.00 | 67 | 1022.0 |
| 20260906072805 | 20 | 68 | 4.8 | 14.5 | 0.00 | 0.00 | 0.00 | 70 | 1022.0 |
| 20260906072306 | 20 | 39 | 3.2 | 11.3 | 0.00 | 0.00 | 0.00 | 70 | 1022.0 |
| 20260906063805 | 20 | 117 | 14.5 | 24.1 | 0.00 | 0.00 | 0.00 | 73 | 1022.0 |
| 20260906063305 | 20 | 55 | 8.0 | 19.3 | 0.00 | 0.00 | 0.00 | 74 | 1022.0 |
| 20260906062805 | 20 | 35 | 11.3 | 25.7 | 0.00 | 0.00 | 0.00 | 74 | 1022.0 |
| 20260906062306 | 20 | 52 | 6.4 | 19.3 | 0.00 | 0.00 | 0.00 | 75 | 1022.0 |
| 20260906061806 | 20 | 40 | 4.8 | 16.1 | 0.00 | 0.00 | 0.00 | 76 | 1022.0 |
| 20260906060305 | 20 | 36 | 4.8 | 11.3 | 0.00 | 0.00 | 0.00 | 77 | 1022.0 |
| 20260906055809 | 20 | 158 | 4.8 | 11.3 | 0.00 | 0.00 | 0.00 | 76 | 1022.0 |
| 20260906055306 | 20 | 51 | 4.8 | 9.7 | 0.00 | 0.00 | 0.00 | 77 | 1022.0 |
| 20260906054805 | 20 | 34 | 3.2 | 4.8 | 0.00 | 0.00 | 0.00 | 78 | 1022.0 |
| 20260906054305 | 20 | 112 | 4.8 | 9.7 | 0.00 | 0.00 | 0.00 | 77 | 1022.0 |
| 20260906053805 | 20 | 73 | 1.6 | 4.8 | 0.00 | 0.00 | 0.00 | 78 | 1021.0 |
| 20260906053305 | 20 | 31 | 1.6 | 4.8 | 0.00 | 0.00 | 0.00 | 78 | 1021.0 |
| 20260906035306 | 20 | 84 | 11.3 | 20.9 | 0.00 | 0.00 | 0.00 | 69 | 1022.0 |
| 20260906031305 | 20 | 63 | 8.0 | 19.3 | 0.00 | 0.00 | 0.00 | 70 | 1022.0 |
| 20260906024805 | 20 | 56 | 4.8 | 19.3 | 0.00 | 0.00 | 0.00 | 71 | 1022.0 |
| 20260906024305 | 20 | 55 | 8.0 | 19.3 | 0.00 | 0.00 | 0.00 | 71 | 1022.0 |
| 20260906020305 | 20 | 30 | 1.6 | 9.7 | 0.00 | 0.00 | 0.00 | 72 | 1022.0 |
| 20260906015804 | 20 | 62 | 3.2 | 12.9 | 0.00 | 0.00 | 0.00 | 73 | 1022.0 |
| 20260906015306 | 20 | 69 | 4.8 | 8.0 | 0.00 | 0.00 | 0.00 | 72 | 1022.0 |
| 20260906014805 | 20 | 23 | 1.6 | 4.8 | 0.00 | 0.00 | 0.00 | 72 | 1022.0 |
| 20260906014305 | 20 | 31 | 1.6 | 8.0 | 0.00 | 0.00 | 0.00 | 73 | 1022.0 |
| 20260906013805 | 20 | 27 | 3.2 | 4.8 | 0.00 | 0.00 | 0.00 | 73 | 1022.0 |
| 20260906011305 | 21 | 91 | 0.0 | 4.8 | 0.00 | 0.00 | 0.00 | 79 | 1022.0 |
| 20260906010804 | 20 | 114 | 3.2 | 4.8 | 0.00 | 0.00 | 0.00 | 78 | 1022.0 |
| 20260906010305 | 20 | 65 | 1.6 | 4.8 | 0.00 | 0.00 | 0.00 | 76 | 1022.0 |
| 20260906005805 | 20 | 76 | 1.6 | 4.8 | 0.00 | 0.00 | 0.00 | 74 | 1022.0 |
| 20260906004305 | 20 | 30 | 4.8 | 19.3 | 0.00 | 0.00 | 0.00 | 74 | 1022.0 |
| 20260906003805 | 20 | 58 | 3.2 | 4.8 | 0.00 | 0.00 | 0.00 | 77 | 1023.0 |
| 20260906003304 | 20 | 61 | 3.2 | 4.8 | 0.00 | 0.00 | 0.00 | 76 | 1023.0 |
| 20260906002805 | 20 | 42 | 3.2 | 4.8 | 0.00 | 0.00 | 0.00 | 73 | 1023.0 |
| 20260906002306 | 20 | 30 | 1.6 | 4.8 | 0.00 | 0.00 | 0.00 | 72 | 1023.0 |
| 20260905234305 | 20 | 24 | 1.6 | 3.2 | 0.00 | 0.00 | 0.00 | 81 | 1023.0 |
| 20260905233804 | 20 | 25 | 1.6 | 3.2 | 0.00 | 0.00 | 0.00 | 82 | 1023.0 |
| 20260905233304 | 20 | 22 | 3.2 | 4.8 | 0.00 | 0.00 | 0.00 | 82 | 1023.0 |
| 20260905232306 | 20 | 24 | 0.0 | 1.6 | 0.00 | 0.00 | 0.00 | 81 | 1023.0 |
| 20260905231805 | 20 | 30 | 0.0 | 3.2 | 0.00 | 0.00 | 0.00 | 81 | 1023.0 |
| 20260905231304 | 20 | 33 | 3.2 | 4.8 | 0.00 | 0.00 | 0.00 | 80 | 1023.0 |
| 20260905230804 | 20 | 35 | 3.2 | 4.8 | 0.00 | 0.00 | 0.00 | 81 | 1023.0 |
| 20260905230305 | 20 | 17 | 3.2 | 4.8 | 0.00 | 0.00 | 0.00 | 81 | 1023.0 |
| 20260905225805 | 20 | 35 | 3.2 | 4.8 | 0.00 | 0.00 | 0.00 | 80 | 1023.0 |
| 20260905225306 | 20 | 35 | 3.2 | 4.8 | 0.00 | 0.00 | 0.00 | 80 | 1023.0 |
| 20260905224305 | 20 | 40 | 3.2 | 4.8 | 0.00 | 0.00 | 0.00 | 79 | 1023.0 |
| 20260905222306 | 21 | 44 | 0.0 | 1.6 | 0.00 | 0.00 | 0.00 | 78 | 1022.0 |
| 20260905221804 | 21 | 339 | 0.0 | 4.8 | 0.00 | 0.00 | 0.00 | 78 | 1022.0 |
| 20260905221304 | 21 | 30 | 0.0 | 3.2 | 0.00 | 0.00 | 0.00 | 76 | 1022.0 |
| 20260905220805 | 21 | 36 | 3.2 | 4.8 | 0.00 | 0.00 | 0.00 | 77 | 1022.0 |
| 20260905215804 | 21 | 98 | 1.6 | 3.2 | 0.00 | 0.00 | 0.00 | 75 | 1022.0 |
| 20260905215306 | 21 | 83 | 1.6 | 4.8 | 0.00 | 0.00 | 0.00 | 74 | 1022.0 |
| 20260905214804 | 21 | 59 | 3.2 | 4.8 | 0.00 | 0.00 | 0.00 | 71 | 1022.0 |
| 20260905214305 | 21 | 81 | 3.2 | 4.8 | 0.00 | 0.00 | 0.00 | 68 | 1022.0 |
| 20260905213804 | 21 | 73 | 3.2 | 8.0 | 0.00 | 0.00 | 0.00 | 69 | 1022.0 |
| 20260905213305 | 21 | 39 | 3.2 | 9.7 | 0.00 | 0.00 | 0.00 | 69 | 1022.0 |
| 20260905212306 | 21 | 33 | 4.8 | 12.9 | 0.00 | 0.00 | 0.00 | 70 | 1022.0 |
| 20260905211805 | 21 | 31 | 3.2 | 4.8 | 0.00 | 0.00 | 0.00 | 72 | 1022.0 |
| 20260905211305 | 21 | 36 | 1.6 | 8.0 | 0.00 | 0.00 | 0.00 | 75 | 1022.0 |
| 20260905205306 | 22 | 250 | 0.0 | 1.6 | 0.00 | 0.00 | 0.00 | 82 | 1022.0 |
| 20260905202804 | 22 | 243 | 0.0 | 3.2 | 0.00 | 0.00 | 0.00 | 81 | 1021.0 |
| 20260905202306 | 22 | 243 | 1.6 | 4.8 | 0.00 | 0.00 | 0.00 | 81 | 1021.0 |
| 20260905195804 | 22 | 234 | 1.6 | 3.2 | 0.00 | 0.00 | 0.00 | 79 | 1021.0 |
| 20260905195306 | 22 | 229 | 1.6 | 3.2 | 0.00 | 0.00 | 0.00 | 79 | 1021.0 |
| 20260905194804 | 22 | 257 | 0.0 | 4.8 | 0.00 | 0.00 | 0.00 | 79 | 1021.0 |
| 20260905194304 | 22 | 252 | 1.6 | 3.2 | 0.00 | 0.00 | 0.00 | 79 | 1021.0 |
| 20260905193804 | 22 | 168 | 0.0 | 1.6 | 0.00 | 0.00 | 0.00 | 79 | 1021.0 |
| 20260905193305 | 22 | 168 | 1.6 | 3.2 | 0.00 | 0.00 | 0.00 | 79 | 1021.0 |
| 20260905192804 | 22 | 168 | 1.6 | 3.2 | 0.00 | 0.00 | 0.00 | 79 | 1021.0 |
| 20260905192306 | 22 | 168 | 0.0 | 3.2 | 0.00 | 0.00 | 0.00 | 79 | 1021.0 |
| 20260905191805 | 22 | 178 | 0.0 | 1.6 | 0.00 | 0.00 | 0.00 | 79 | 1021.0 |
| 20260905191304 | 22 | 181 | 0.0 | 4.8 | 0.00 | 0.00 | 0.00 | 79 | 1021.0 |
| 20260905185804 | 22 | 188 | 3.2 | 4.8 | 0.00 | 0.00 | 0.00 | 79 | 1021.0 |
| 20260905185306 | 22 | 122 | 3.2 | 4.8 | 0.00 | 0.00 | 0.00 | 79 | 1021.0 |
| 20260905183804 | 22 | 192 | 3.2 | 4.8 | 0.00 | 0.00 | 0.00 | 79 | 1021.0 |
| 20260905183304 | 22 | 194 | 3.2 | 4.8 | 0.00 | 0.00 | 0.00 | 78 | 1021.0 |
| 20260905172305 | 22 | 248 | 4.8 | 8.0 | 0.00 | 0.00 | 0.00 | 78 | 1020.0 |
| 20260905171804 | 23 | 219 | 4.8 | 9.7 | 0.00 | 0.00 | 0.00 | 78 | 1020.0 |
| 20260905171304 | 23 | 247 | 4.8 | 4.8 | 0.00 | 0.00 | 0.00 | 78 | 1020.0 |
| 20260905164804 | 23 | 237 | 3.2 | 4.8 | 0.00 | 0.00 | 0.00 | 78 | 1020.0 |
| 20260905164305 | 23 | 243 | 4.8 | 4.8 | 0.00 | 0.00 | 0.00 | 76 | 1020.0 |
| 20260905163804 | 23 | 254 | 3.2 | 4.8 | 0.00 | 0.00 | 0.00 | 77 | 1021.0 |
| 20260905163304 | 23 | 258 | 4.8 | 8.0 | 0.00 | 0.00 | 0.00 | 78 | 1021.0 |
| 20260905162805 | 23 | 252 | 4.8 | 8.0 | 0.00 | 0.00 | 0.00 | 77 | 1021.0 |
| 20260905162306 | 23 | 231 | 4.8 | 8.0 | 0.00 | 0.00 | 0.00 | 77 | 1021.0 |
| 20260905154305 | 24 | 203 | 8.0 | 14.5 | 0.00 | 0.00 | 0.00 | 72 | 1021.0 |
| 20260905153304 | 24 | 227 | 4.8 | 9.7 | 0.00 | 0.00 | 0.00 | 73 | 1021.0 |
| 20260905145307 | 24 | 198 | 8.0 | 11.3 | 0.00 | 0.00 | 0.00 | 73 | 1021.0 |
| 20260905144805 | 23 | 217 | 4.8 | 12.9 | 0.00 | 0.00 | 0.00 | 75 | 1021.0 |
| 20260905144305 | 24 | 232 | 8.0 | 11.3 | 0.00 | 0.00 | 0.00 | 73 | 1021.0 |
| 20260905143806 | 24 | 189 | 8.0 | 14.5 | 0.00 | 0.00 | 0.00 | 74 | 1021.0 |
| 20260905143305 | 23 | 223 | 8.0 | 11.3 | 0.00 | 0.00 | 0.00 | 75 | 1021.0 |
| 20260905142806 | 23 | 205 | 4.8 | 11.3 | 0.00 | 0.00 | 0.00 | 73 | 1021.0 |
| 20260905141305 | 25 | 201 | 6.4 | 11.3 | 0.00 | 0.00 | 0.00 | 70 | 1021.0 |
| 20260905140806 | 25 | 188 | 6.4 | 11.3 | 0.00 | 0.00 | 0.00 | 69 | 1021.0 |
| 20260905135307 | 25 | 198 | 6.4 | 14.5 | 0.00 | 0.00 | 0.00 | 67 | 1021.0 |
| 20260905134805 | 24 | 189 | 8.0 | 11.3 | 0.00 | 0.00 | 0.00 | 72 | 1021.0 |
| 20260905134306 | 23 | 226 | 6.4 | 9.7 | 0.00 | 0.00 | 0.00 | 71 | 1021.0 |
| 20260905131805 | 25 | 206 | 8.0 | 14.5 | 0.00 | 0.00 | 0.00 | 69 | 1021.0 |
| 20260905131305 | 25 | 205 | 4.8 | 11.3 | 0.00 | 0.00 | 0.00 | 71 | 1021.0 |
| 20260905130305 | 25 | 197 | 6.4 | 11.3 | 0.00 | 0.00 | 0.00 | 69 | 1021.0 |
| 20260905125805 | 24 | 195 | 6.4 | 19.3 | 0.00 | 0.00 | 0.00 | 72 | 1021.0 |
| 20260905125306 | 24 | 216 | 8.0 | 16.1 | 0.00 | 0.00 | 0.00 | 72 | 1021.0 |
| 20260905123306 | 24 | 228 | 8.0 | 14.5 | 0.00 | 0.00 | 0.00 | 72 | 1021.0 |
| 20260905121805 | 24 | 237 | 8.0 | 14.5 | 0.00 | 0.00 | 0.00 | 73 | 1021.0 |
| 20260905121305 | 24 | 220 | 6.4 | 9.7 | 0.00 | 0.00 | 0.00 | 73 | 1021.0 |
| 20260905120305 | 23 | 215 | 6.4 | 11.3 | 0.00 | 0.00 | 0.00 | 74 | 1021.0 |
| 20260905114305 | 23 | 195 | 4.8 | 11.3 | 0.00 | 0.00 | 0.00 | 72 | 1021.0 |
| 20260905113806 | 25 | 182 | 4.8 | 9.7 | 0.00 | 0.00 | 0.00 | 72 | 1021.0 |
| 20260905112805 | 23 | 255 | 4.8 | 11.3 | 0.00 | 0.00 | 0.00 | 73 | 1021.0 |
| 20260905112306 | 24 | 257 | 3.2 | 9.7 | 0.00 | 0.00 | 0.00 | 74 | 1021.0 |
| 20260905111805 | 22 | 238 | 3.2 | 4.8 | 0.00 | 0.00 | 0.00 | 78 | 1021.0 |
| 20260905111305 | 22 | 232 | 4.8 | 8.0 | 0.00 | 0.00 | 0.00 | 78 | 1021.0 |
| 20260905110805 | 22 | 235 | 3.2 | 9.7 | 0.00 | 0.00 | 0.00 | 78 | 1021.0 |
| 20260905110305 | 22 | 185 | 3.2 | 8.0 | 0.00 | 0.00 | 0.00 | 77 | 1021.0 |
| 20260905105306 | 22 | 213 | 4.8 | 8.0 | 0.00 | 0.00 | 0.00 | 76 | 1021.0 |
| 20260905104805 | 23 | 235 | 6.4 | 9.7 | 0.00 | 0.00 | 0.00 | 75 | 1021.0 |
| 20260905104306 | 22 | 201 | 3.2 | 8.0 | 0.00 | 0.00 | 0.00 | 77 | 1021.0 |